Regional Weather Roundup
Issued by NWS

Home | Current Version | Previous Version | Graphics & Text | Print | Product List | Glossary On
Versions: 1 2 3 4 5 6 7 8 9 10 11 12 13 14 15 16 17 18 19 20 21 22 23 24 25 26 27 28 29 30 31 32 33 34 35 36 37 38 39 40 41 42 43 44 45 46 47 48 49 50
929
ASUS45 KTFX 281610
RWRMT
MONTANA REGIONAL WEATHER ROUNDUP
NATIONAL WEATHER SERVICE GREAT FALLS MT
1000 AM MDT WED SEP 28 2016

NOTE: "FAIR" INDICATES FEW OR NO CLOUDS BELOW 12000 FEET WITH NO
SIGNIFICANT WEATHER AND/OR OBSTRUCTIONS TO VISIBILITY.

MTZ001>007-043-281700-
WEST OF THE DIVIDE

CITY           SKY/WX    TMP DP  RH WIND       PRES   REMARKS
KALISPELL      MOSUNNY   60  39  45 NE15      30.15R
MISSOULA       SUNNY     60  45  57 CALM      30.16S
BUTTE          SUNNY     54  40  59 N3        30.27F
MULLAN PASS    SUNNY     55  42  61 SE10G18   30.19S
ANACONDA         N/A     57  39  51 S6        30.24F
DEER LODGE       N/A     52  43  71 E3        30.26F
EUREKA           N/A     61  41  48 CALM      30.17S
HAMILTON         N/A     57  43  58 S3        30.16S
LIBBY            N/A     54  46  76 CALM      30.14S
PLAINS           N/A     54  46  74 CALM      30.12S
RONAN            N/A     62  44  51 N7        30.17S
THOMPSON FALLS   N/A     54  49  83 CALM      30.15S
$$

MTZ008-052>055-281700-
SOUTHWEST MONTANA

CITY           SKY/WX    TMP DP  RH WIND       PRES   REMARKS
BOZEMAN        SUNNY     51  43  74 N5        30.29S
DILLON         SUNNY     50  40  68 S3        30.28R
W YELLOWSTONE  SUNNY     45  36  70 CALM      30.38R
ENNIS          SUNNY     54  39  58 CALM      30.34S
THREE FORKS      N/A     57  56  97 CALM      30.25S
TWIN BRIDGES     N/A     50  40  68 SE5       30.23S
$$

MTZ009-010-012-014-046-048-049-054-281700-
EAST SLOPES AND CENTRAL MONTANA

CITY           SKY/WX    TMP DP  RH WIND       PRES   REMARKS
CUT BANK       MOSUNNY   49  36  61 SE8       30.31F
GREAT FALLS    SUNNY     49  38  65 CALM      30.31F
MALMSTROM AFB  SUNNY     48  39  70 W2        30.31F
HELENA         SUNNY     56  38  50 NW6       30.28F
AUGUSTA        PTSUNNY   49  38  66 SW3       30.30F
BOWMANS CRNR     N/A     48  37  67 NE5       30.29S
CHOTEAU          N/A     50  37  62 E3        30.32F
CONRAD           N/A     49  42  76 NW5       30.29F
FAIRFIELD        N/A     49  37  62 E3        30.30F
POWER            N/A     48  38  69 E5        30.30S
RAYNESFORD       N/A     49  41  73 N2        30.30F
$$

MTZ011-013-016-021-045-047-050-051-281700-
NORTH CENTRAL MONTANA

CITY           SKY/WX    TMP DP  RH WIND       PRES   REMARKS
HAVRE          SUNNY     53  42  66 NE14      30.32F
LEWISTOWN        N/A    N/A N/A N/A MISG      30.32S
N BAR RANCH      N/A     54  45  71 CALM      30.35F
CHINOOK          N/A     54  43  66 E8        30.33F
DENTON           N/A     51  43  76 SE5       30.28F
GEYSER         PTSUNNY   49  38  66 SW3       30.30F
GRASS RANGE      N/A     53  44  71 E3        30.30F
JUDITH GAP       N/A     53  43  71 S5G13     30.32F
ROY              N/A     53  45  76 MISG      30.31S
STANFORD         N/A     51  43  74 E7        30.31F
$$

MTZ017>020-022>027-061-062-281700-
NORTHEAST MONTANA

CITY           SKY/WX    TMP DP  RH WIND       PRES   REMARKS
GLASGOW        MOSUNNY   57  44  62 VRB5      30.30R
JORDAN           N/A     58  46  64 NE5       30.30R
SIDNEY         SUNNY     57  48  72 N7        30.27R
WOLF POINT     SUNNY     60  46  59 NE8       30.29R
PLENTYWOOD       N/A     55  46  71 N9        30.28R
POPLAR           N/A     55  46  71 N6        30.29S
SCOBEY           N/A     54  42  63 N13       30.26
$$

MTZ028>42-056>058-281700-
SOUTHCENTRAL AND SOUTHEAST MONTANA

CITY           SKY/WX    TMP DP  RH WIND       PRES   REMARKS
BAKER          SUNNY     60  50  69 N3        30.28R
BILLINGS       SUNNY     55  45  68 E8        30.32S
LIVINGSTON     SUNNY     56  45  66 E13       30.31F
MILES CITY     SUNNY     60  48  64 NE8       30.28S
BIG TIMBER     SUNNY     55  46  71 E9        30.35S
EKALAKA          N/A     63  47  55 NW1       30.24R
FORSYTH          N/A     57  48  72 CALM      30.29S
HARLOWTON        N/A     52  44  75 E2        30.32F
LAUREL           N/A     56  45  66 NE2       30.28R
ROUNDUP          N/A     54  42  63 N5        30.22R
$$

REGIONAL REPORTS...DAKOTAS

CITY           SKY/WX    TMP DP  RH WIND       PRES   REMARKS
WILLISTON      SUNNY     55  48  77 NE12      30.26R
MINOT          SUNNY     59  43  55 E5        30.27R
DICKINSON      SUNNY     61  48  62 CALM      30.23R
BEACH            N/A     57  52  82 N6        30.30R
CROSBY           N/A     54  48  82 N8        30.28R
WATFORD CITY     N/A     57  50  77 N5        30.26R
BISMARCK       SUNNY     55  45  68 CALM      30.28R
GRAND FORKS    CLOUDY    53  46  77 CALM      30.30R
FARGO          CLOUDY    51  46  83 N6        30.29R
BUFFALO SD       N/A     68  48  48 NE5       30.19R
RAPID CITY     SUNNY     69  47  45 SE5       30.26R
$$

REGIONAL REPORTS...WYOMING/IDAHO/WASHINGTON

CITY           SKY/WX    TMP DP  RH WIND       PRES   REMARKS
GILLETTE       SUNNY     70  48  45 CALM      30.31R
SHERIDAN       SUNNY     64  47  53 N3        30.30S
BUFFALO WY     SUNNY     70  43  37 CALM      30.35R
CODY           SUNNY     57  45  62 NE6       30.34S
YELLOWSTONE LA   N/A     50  43  77 E3        30.44R
IDAHO FALLS    SUNNY     55  46  71 NW6       30.23S
SALMON         SUNNY     52  41  66 CALM      30.22S
BOISE          SUNNY     68  40  35 S5        30.06R
SPOKANE        MOSUNNY   60  42  51 NE9       30.06R
$$

REGIONAL REPORTS...ALBERTA

CITY           SKY/WX    TMP DP  RH WIND       PRES   REMARKS
EDMONTON       CLOUDY    45  37  76 CALM      30.33F
CALGARY        CLOUDY    48  32  53 S16G22    30.31S
LETHBRIDGE     PTSUNNY   50  37  62 SE6       30.31F
MEDICINE HAT   MOSUNNY   54  41  62 E10       30.33F
WATERTON GATE    N/A     50  34  53 NE6         N/A
CARDSTON         N/A     45  36  70 SE3         N/A
MILK RIVER       N/A     50  36  57 SE1         N/A
$$

REGIONAL REPORTS...SASKATCHEWAN

CITY           SKY/WX    TMP DP  RH WIND       PRES   REMARKS
SWIFT CURRENT  PTSUNNY   50  39  66 NE12      30.35R
REGINA         MOSUNNY   55  46  71 N15       30.30S
SASKATOON      MOSUNNY   50  43  76 N5        30.40R
CYPRESS HILLS    N/A     50  36  57 E8          N/A
VAL MARIE        N/A     55  43  62 NE13        N/A
ROCKGLEN         N/A     52  45  76 N13G20      N/A
ASSINIBOIA       N/A     39  36  87 SE2         N/A
$$




USA.gov is the U.S. government's official web portal to all federal, state and local government web resources and services.